Wind_Speed
12 13 14 15 14 14 14 14 13 13 13 12 12 12 13 13 12 13 14 13 13 12 12 13 13 11 11 11 11 11 10 10 11 12 13 14 13 12 12 11 11 11 12 13 13 13 13 14 15 15 15 15 15 15 15 15 15 15 15 15 15 14 12 11 11 10 10 10 9 8 8 7 7 7 7 7 7 9 10 11 11 10 11 11 12
11 11 12 13 14 13 14 15 14 13 13 13 13 13 13 13 13 13 13 13 13 13 12 12 12 12 10 10 10 10 10 9 10 11 13 14 14 13 13 12 11 11 11 12 12 13 13 13 13 14 13 13 13 13 13 13 13 13 13 14 14 13 12 11 11 10 10 10 9 8 7 6 7 7 8 8 8 8 10 10 9 9 9 10 10
11 11 11 12 14 14 14 15 15 13 13 12 12 13 13 13 14 13 13 13 13 13 13 12 12 12 11 10 10 10 10 10 10 10 11 12 14 14 13 12 12 11 11 11 11 12 12 13 13 13 13 12 12 11 11 11 11 11 12 12 13 12 12 11 11 11 11 10 10 9 7 6 6 7 8 8 7 8 9 9 8 8 8 8 9
13 12 12 12 13 14 15 15 15 14 13 13 12 13 13 14 14 14 14 13 13 12 12 13 13 12 11 11 11 11 11 10 10 10 11 11 12 13 13 13 12 12 11 10 10 10 11 11 11 12 12 12 11 11 11 11 11 11 11 11 11 11 10 10 10 10 11 11 10 9 8 7 6 7 9 9 8 7 8 8 8 7 6 7 7
15 15 13 13 14 15 16 16 15 15 15 15 13 12 13 13 14 14 14 14 13 12 12 13 13 12 12 11 10 11 10 10 9 9 10 10 11 12 13 13 13 13 12 11 11 10 10 10 10 10 10 10 10 10 10 10 11 11 11 10 10 10 9 9 8 8 9 10 10 10 9 7 7 7 8 8 8 7 8 8 7 7 6 6 6
16 17 16 15 16 15 15 15 15 15 16 15 14 13 12 12 13 14 15 14 14 13 13 12 12 12 11 10 9 9 9 9 9 9 10 11 11 12 13 14 14 13 13 12 11 11 10 9 9 8 8 8 8 9 10 10 10 10 11 10 10 9 9 8 7 7 8 8 9 10 9 8 8 7 7 7 8 8 8 8 7 7 6 5 5
16 16 17 17 15 14 14 15 15 16 16 16 15 14 13 12 13 14 15 15 15 15 14 13 12 11 10 9 8 8 8 8 9 10 10 10 11 12 13 14 14 14 14 13 12 12 11 10 9 9 9 8 9 9 10 10 10 10 9 9 9 8 8 7 7 7 7 7 8 9 9 9 9 8 7 7 7 8 8 8 7 6 6 5 5
17 16 16 16 15 15 15 15 15 16 16 15 15 15 15 14 13 14 15 15 16 15 15 13 11 11 11 11 10 10 9 8 9 9 10 10 11 12 13 15 15 16 16 14 13 12 12 11 11 10 10 10 9 8 8 8 8 9 9 9 8 8 8 7 7 7 7 7 8 9 9 10 10 9 9 8 8 8 7 7 7 6 6 5 5
19 18 16 16 16 16 16 15 15 15 16 16 16 17 16 15 14 14 15 15 15 15 14 13 11 11 11 12 12 12 11 10 9 10 10 10 11 12 13 15 16 16 16 16 15 14 13 13 12 12 11 10 9 8 7 7 7 8 9 9 9 9 8 8 8 8 8 7 7 8 9 10 11 10 10 9 9 8 8 7 6 6 5 5 5
20 19 18 18 17 16 16 15 15 15 16 16 16 16 16 16 16 16 16 15 14 14 13 13 12 12 12 12 12 12 11 11 10 10 10 11 11 12 13 14 15 15 16 15 15 14 14 14 13 12 11 10 9 8 8 7 7 8 8 9 9 9 9 9 9 9 9 9 9 9 9 10 11 10 10 9 9 9 9 8 7 6 5 5 5
22 21 20 20 18 15 15 15 16 16 15 16 16 16 16 16 17 17 16 15 14 14 14 14 14 14 14 13 12 12 11 11 10 10 10 11 11 12 13 14 14 14 14 14 15 14 14 14 13 11 10 9 9 9 9 8 8 8 8 9 10 10 10 10 9 9 10 10 10 10 10 10 10 10 10 9 7 8 9 9 8 7 6 5 5
24 24 22 21 17 14 13 14 15 16 15 15 16 16 16 16 16 17 17 16 15 15 15 15 15 15 15 15 14 13 12 12 11 10 10 11 11 12 12 12 13 13 14 14 15 14 14 13 11 10 9 8 8 9 9 9 8 9 9 9 9 10 10 10 10 11 11 10 10 10 11 11 11 10 10 9 7 7 8 9 8 7 6 5 5
27 26 24 21 18 15 14 15 15 16 16 16 15 16 16 16 16 17 17 16 16 16 16 17 17 16 16 16 15 14 13 13 12 11 11 11 11 11 11 12 12 13 13 14 14 14 13 12 11 10 9 8 8 8 8 8 8 8 8 9 9 9 10 10 10 10 10 10 10 11 11 11 11 10 10 10 9 7 7 7 8 7 6 5 5
29 28 25 22 20 18 17 17 17 18 18 17 16 15 16 16 16 16 16 16 16 17 17 17 17 17 17 16 16 15 14 13 13 12 11 11 10 10 10 11 12 12 12 12 12 12 12 11 10 10 9 9 8 8 8 8 8 7 7 8 8 9 9 10 10 10 9 10 10 10 10 10 10 10 9 9 9 7 6 6 6 6 6 5 5
32 30 27 24 22 20 19 19 19 19 18 18 17 16 16 16 17 16 16 16 17 18 18 17 17 16 16 16 16 15 14 13 13 12 12 11 10 10 9 10 10 10 10 10 10 11 11 11 10 10 9 9 9 8 8 7 7 7 6 6 7 7 8 9 9 9 9 9 9 9 10 10 10 10 9 9 8 6 5 5 4 4 4 4 4
35 31 29 26 23 21 21 20 20 19 18 17 17 17 17 17 17 17 16 16 16 17 18 18 17 17 17 17 17 16 15 14 14 14 13 12 12 11 10 9 9 9 9 9 10 10 11 11 11 10 10 10 9 8 8 7 7 7 6 6 6 6 7 7 8 8 9 9 9 9 9 9 9 9 9 8 7 6 4 3 2 2 2 2 3
33 31 29 27 24 22 22 22 21 19 18 16 16 17 16 16 16 16 17 16 16 16 18 18 18 18 18 18 17 17 17 16 16 16 15 13 13 12 12 11 10 10 9 10 10 10 11 12 12 11 11 10 10 9 8 8 7 7 7 7 6 6 6 6 7 7 8 9 9 8 8 8 8 8 8 7 7 6 5 4 4 3 3 3 3
29 30 29 28 26 25 24 23 22 20 18 17 16 16 15 15 14 14 15 16 16 17 17 17 18 19 20 19 18 18 18 18 18 17 16 15 15 14 14 13 12 11 10 10 10 11 11 12 12 12 12 11 10 10 9 9 8 8 7 7 7 6 6 6 7 7 8 8 8 8 8 8 8 8 8 8 8 8 7 7 6 6 5 4 4
26 29 30 30 29 28 26 23 21 20 18 17 16 16 15 15 15 14 14 14 14 15 16 16 17 19 21 21 20 20 19 19 19 18 17 17 17 16 16 15 14 13 12 11 11 11 11 12 12 12 12 12 11 11 10 10 9 9 8 8 8 7 7 7 7 7 8 8 8 8 8 7 8 8 8 8 8 9 9 9 8 8 7 6 6
25 31 34 34 32 29 26 24 23 22 21 19 18 17 17 16 16 15 15 14 14 14 15 16 17 19 20 22 22 21 21 20 19 19 18 18 18 18 17 16 16 15 13 13 12 12 12 12 12 13 13 12 12 11 11 11 10 10 9 9 8 8 8 8 8 8 8 8 8 8 8 8 8 8 9 9 9 9 9 10 10 9 9 9 8
22 31 35 34 32 28 27 27 27 26 23 22 22 21 20 19 17 16 16 16 16 16 16 18 19 20 20 22 23 23 23 22 21 20 20 20 20 19 18 18 17 16 15 14 14 13 13 13 13 13 13 13 12 12 12 12 11 11 10 10 9 9 9 9 9 8 8 9 9 9 9 9 9 9 9 9 10 10 10 10 10 10 10 10 10
20 25 29 30 30 29 28 28 28 27 25 24 24 23 23 21 19 18 18 18 17 17 17 19 21 22 22 23 24 25 25 24 23 22 22 22 21 21 20 19 19 18 16 16 15 14 14 14 14 14 14 14 14 13 13 13 13 12 11 11 10 10 10 9 9 9 9 10 10 10 10 10 10 10 10 10 10 11 11 11 11 11 11 11 11
21 22 23 26 28 30 31 31 29 28 27 27 26 25 25 24 22 21 21 21 21 20 19 20 21 22 23 24 25 25 26 25 24 24 24 23 23 23 22 21 21 20 18 17 16 15 15 15 15 15 15 15 15 14 14 14 14 13 13 12 11 11 10 10 9 9 9 9 10 10 11 11 11 11 11 11 10 11 11 11 11 10 10 10 10
22 22 23 25 27 29 30 32 32 31 31 30 30 29 27 26 25 24 24 25 24 23 23 22 22 23 24 25 25 25 26 26 26 26 26 25 25 24 24 23 22 21 20 19 18 17 17 16 16 16 16 16 15 15 15 15 15 15 14 13 13 12 11 10 10 9 9 8 9 9 10 10 11 11 11 11 11 11 11 11 10 10 9 8 9
24 25 25 26 27 27 28 30 32 33 34 32 31 30 28 26 25 26 27 27 27 27 27 26 25 25 25 25 25 25 25 26 28 29 29 28 27 26 25 25 24 23 22 21 20 19 18 18 18 17 16 16 16 16 15 15 16 16 16 16 15 14 13 12 12 11 9 9 9 8 9 9 10 10 10 11 11 11 11 11 10 9 8 8 8
27 28 28 28 28 27 26 28 30 31 33 32 30 28 28 27 27 29 29 29 29 30 30 30 29 27 27 26 25 25 25 26 27 29 30 30 29 28 27 26 25 24 24 23 22 21 21 20 20 19 18 17 16 16 16 16 16 17 17 17 17 16 16 15 14 13 12 11 11 10 10 10 9 9 9 10 10 11 11 11 11 10 9 9 9
29 30 30 29 29 28 26 26 27 28 29 29 28 28 28 29 30 31 31 31 31 30 31 33 33 30 28 27 25 24 24 26 27 28 29 31 31 30 29 28 27 27 26 25 25 24 24 23 22 21 20 19 18 17 17 17 17 17 18 18 18 18 18 17 17 16 16 15 14 13 13 12 12 10 10 11 11 12 12 12 12 11 11 11 11
30 30 30 29 28 29 27 26 27 28 27 26 26 27 27 28 29 30 30 30 30 30 31 33 35 34 31 27 26 26 26 27 29 29 29 30 31 31 30 29 28 27 27 27 27 27 26 25 24 23 22 21 20 20 19 18 18 18 18 18 18 19 19 19 19 18 18 18 17 17 16 16 15 13 13 13 14 14 14 14 13 13 13 13 14
31 31 30 28 27 27 26 26 25 25 25 25 26 26 26 25 26 27 27 27 27 27 29 32 35 36 33 29 29 31 31 30 31 31 31 31 31 32 32 31 29 28 28 28 28 28 28 26 25 25 24 23 22 22 22 21 20 19 19 19 18 18 18 19 19 19 19 19 19 19 18 18 17 17 16 16 17 17 18 18 17 16 16 16 16
33 32 31 30 29 26 25 24 24 22 21 22 22 23 23 24 24 25 25 25 25 24 25 29 32 35 35 33 34 35 34 33 33 33 32 32 32 32 33 34 33 31 29 29 29 28 28 27 26 26 25 24 23 23 24 23 23 21 21 20 19 18 18 18 19 19 19 20 20 20 19 19 19 19 19 19 19 19 20 21 21 20 19 19 19
34 35 34 33 31 29 25 24 24 22 20 20 20 20 21 22 23 24 25 24 23 22 23 26 28 31 35 38 38 38 37 37 36 36 34 33 33 33 34 36 36 34 32 30 29 28 27 27 27 26 25 24 24 24 25 25 24 24 23 22 21 20 19 19 18 19 19 19 20 20 20 20 20 20 20 20 20 20 21 22 22 22 21 21 21
32 35 34 33 33 33 30 25 24 23 22 22 22 22 23 23 21 22 24 24 22 20 21 23 25 27 30 34 37 40 41 40 39 38 37 35 34 34 34 36 37 36 34 32 30 29 28 28 27 26 25 25 25 25 25 25 25 25 25 24 24 23 22 21 20 19 19 19 19 20 21 21 21 22 22 21 21 21 21 22 22 22 21 21 21
28 31 31 31 32 33 31 27 25 25 24 24 24 24 25 24 22 21 24 24 23 22 21 21 23 24 25 28 33 38 42 42 40 40 40 38 35 35 35 35 36 37 36 34 33 31 29 29 28 27 26 25 26 26 26 25 25 25 26 25 25 25 25 24 23 22 21 21 21 21 22 22 23 23 23 23 22 22 22 22 22 22 22 22 22
26 29 29 29 29 30 30 29 27 27 26 25 26 26 26 25 23 23 23 22 21 22 21 19 19 20 21 23 26 30 37 42 42 42 42 39 36 36 36 35 35 36 37 37 35 32 31 31 30 29 27 27 27 27 27 27 26 26 27 26 26 26 26 26 26 25 25 24 24 24 24 24 24 24 24 24 24 24 24 23 23 23 23 23 23
27 29 30 30 29 29 30 30 30 30 29 28 28 28 28 26 25 26 26 23 22 22 22 20 18 17 17 17 18 21 27 34 39 40 41 41 39 37 36 34 34 35 36 37 36 33 33 33 32 31 29 28 28 29 29 28 28 27 27 27 27 27 27 28 27 27 27 27 27 26 26 26 26 26 26 26 26 26 25 25 25 25 25 25 25
29 31 32 32 31 29 29 30 30 31 30 29 29 29 29 28 27 27 27 26 25 25 25 24 22 21 19 16 14 14 16 22 27 31 35 39 38 35 34 33 33 33 34 34 34 34 34 33 33 33 32 31 31 31 30 30 29 28 28 27 27 27 28 28 29 29 29 29 29 28 28 28 28 28 28 28 28 28 26 26 26 26 26 26 26
30 32 32 33 32 31 30 31 31 31 31 30 30 29 30 30 29 29 28 27 27 26 26 25 24 24 24 21 17 15 13 13 15 19 25 29 32 32 33 34 34 34 34 33 33 35 34 34 34 35 34 33 33 32 32 31 31 30 29 27 27 27 28 28 29 30 31 30 31 30 30 30 29 30 30 30 30 29 27 27 27 27 26 26 26
31 30 30 30 31 31 32 32 32 32 32 31 31 31 30 31 31 30 29 28 27 26 25 24 23 25 26 24 22 20 17 13 11 11 12 16 21 27 32 35 36 35 35 35 36 36 35 34 34 34 34 34 35 34 34 33 33 32 31 29 28 28 28 28 29 30 31 31 31 32 31 31 31 31 32 32 31 30 28 28 28 28 27 27 27
34 33 32 31 31 31 32 32 32 32 32 32 32 32 31 31 32 32 31 30 29 27 26 25 24 25 25 24 24 25 24 21 18 14 11 11 13 16 23 30 35 37 37 36 36 36 36 36 35 33 33 33 34 35 35 35 34 34 32 31 30 29 29 29 30 30 30 30 31 31 32 31 31 31 32 33 33 32 30 29 29 29 27 28 30
40 39 39 38 36 34 34 34 34 34 33 32 32 32 32 32 32 32 32 31 30 29 27 26 26 26 26 25 25 26 26 26 24 21 19 19 18 15 15 16 22 28 33 35 37 37 37 37 35 34 33 33 33 35 36 35 35 34 34 32 31 31 30 31 31 31 31 31 31 32 33 33 32 32 32 34 34 34 32 31 30 30 29 29 31
47 46 44 42 41 38 37 36 36 36 35 35 34 34 34 34 33 33 33 32 31 30 29 28 27 27 27 26 25 26 27 27 26 24 24 25 24 23 22 18 15 16 19 24 29 33 35 36 35 35 34 34 33 34 34 35 35 35 35 34 33 32 32 32 33 32 32 32 33 34 35 35 34 34 34 34 35 36 36 34 33 33 32 32 32
50 50 49 46 44 41 40 39 38 37 36 36 36 35 35 35 34 34 34 33 33 32 30 29 28 28 28 27 26 26 26 26 26 25 25 25 24 24 25 25 22 19 17 17 19 22 25 28 30 32 33 34 34 34 34 34 35 35 34 34 34 34 34 34 34 34 33 33 33 34 35 35 35 35 35 35 35 36 37 37 37 37 37 36 35
48 49 50 49 47 45 43 42 41 40 39 37 37 36 36 35 35 34 34 33 32 32 31 30 29 29 28 28 27 26 26 27 26 26 25 25 24 23 23 23 24 23 21 20 19 19 19 20 20 23 26 29 31 32 33 34 33 32 32 32 32 33 34 35 35 35 35 33 33 33 34 35 35 35 35 35 35 35 36 37 38 39 39 40 39
47 48 48 49 49 48 47 46 45 45 44 41 39 37 36 36 35 34 33 32 31 31 30 30 30 30 29 29 28 28 27 27 27 27 27 26 25 25 24 23 24 23 23 22 22 22 23 23 22 22 23 24 25 26 28 29 29 28 28 29 29 30 31 31 32 33 33 32 31 31 33 34 35 36 36 36 36 35 35 36 37 38 39 40 40
42 46 49 49 50 51 50 50 49 48 47 45 43 41 39 38 37 35 34 33 33 32 31 31 31 31 31 30 30 29 29 29 29 29 28 28 27 27 26 26 26 26 26 25 25 25 26 26 27 27 27 27 27 26 25 26 26 26 27 27 27 28 29 29 28 28 28 28 29 30 31 32 33 34 35 35 36 37 37 37 38 39 39 40 40
34 39 44 47 50 52 52 53 52 51 49 47 45 44 42 40 38 37 37 36 36 36 36 35 35 35 34 33 33 32 32 32 32 32 31 31 30 29 29 29 29 28 28 28 28 28 28 29 29 30 30 30 30 30 29 29 29 29 29 30 30 31 32 31 30 29 29 29 29 30 31 32 33 33 33 34 35 36 37 38 40 41 41 42 42
37 38 40 42 44 47 50 51 52 52 50 48 46 45 43 42 41 41 40 40 40 40 40 40 39 38 38 38 37 36 36 35 34 34 35 34 34 32 32 32 31 31 30 30 30 30 31 31 32 32 33 33 33 33 33 33 33 32 32 33 34 34 34 34 35 35 35 34 33 33 33 34 34 34 34 34 34 35 36 38 40 41 42 42 43
44 44 44 44 42 42 42 43 44 45 45 44 44 43 42 43 43 43 42 42 42 42 42 43 42 41 41 40 40 40 40 39 38 38 37 37 37 36 35 34 34 34 33 33 33 33 34 34 35 35 36 36 36 36 35 36 36 36 36 36 37 36 36 37 38 38 37 37 36 36 36 36 36 36 36 36 36 36 37 38 39 40 41 41 41
49 48 48 47 46 44 43 42 41 40 40 41 42 43 44 45 45 45 45 45 45 45 44 44 44 44 44 43 42 42 42 41 41 41 40 39 39 38 38 37 36 37 37 36 36 36 36 37 37 37 38 39 39 38 38 38 38 38 38 39 39 39 39 39 39 39 38 38 38 38 38 38 38 38 37 37 37 38 39 39 40 40 41 41 40
45 47 48 48 47 46 45 44 43 43 42 43 44 46 48 49 48 48 48 48 48 48 47 47 46 46 45 45 44 43 43 43 42 42 42 42 41 40 40 39 38 38 38 38 39 39 39 39 39 39 39 40 41 41 40 39 40 40 41 41 41 41 41 41 41 40 40 40 40 40 40 40 40 39 38 37 38 40 40 41 41 41 40 40 39
38 41 44 47 48 48 48 47 46 45 44 44 45 46 47 49 49 49 48 48 48 49 49 49 48 47 46 46 45 45 44 43 43 43 43 43 43 42 41 41 41 40 40 39 40 40 40 40 40 41 41 41 42 42 42 42 41 41 42 42 42 42 42 42 42 42 41 41 41 41 41 41 41 41 40 39 40 40 41 41 41 41 40 38 37
Wind_Direction
177 186 192 191 188 178 168 166 164 160 158 155 153 156 153 148 147 144 144 149 152 154 152 151 153 154 155 152 144 141 141 139 137 134 132 131 130 129 128 128 129 130 131 132 134 136 136 137 138 139 140 141 141 140 138 135 132 130 129 128 127 130 133 134 133 133 134 135 135 132 130 127 121 115 109 104 104 111 118 120 119 121 124 127 129
173 180 186 189 195 189 176 175 174 168 166 162 158 159 159 157 154 148 144 147 149 151 152 152 156 159 162 162 156 155 156 152 147 142 140 139 138 136 135 134 134 135 136 137 138 139 140 139 139 140 142 143 144 143 142 140 137 137 136 134 133 134 137 136 135 137 139 140 140 138 136 133 125 117 109 104 104 112 118 118 117 119 125 129 131
175 179 180 182 194 196 188 184 180 173 172 171 165 160 164 166 160 154 150 148 148 148 148 150 154 157 163 167 166 168 168 163 158 151 148 147 145 141 139 138 139 140 143 144 144 144 143 143 142 143 144 145 147 149 149 148 148 148 147 144 143 143 143 141 141 142 142 144 143 142 141 138 130 120 112 105 103 109 116 115 110 111 122 129 133
180 183 181 177 190 195 195 194 185 177 178 180 177 168 168 173 165 161 159 154 152 150 149 151 153 156 160 165 169 173 173 170 167 161 157 156 152 147 145 144 144 145 146 148 149 150 148 147 146 147 148 149 152 154 155 157 159 161 160 157 153 152 151 149 148 145 143 145 146 148 148 145 137 126 117 108 104 106 112 110 104 103 113 125 132
184 184 183 180 190 192 193 199 191 184 185 183 185 179 173 174 169 168 169 163 161 161 162 161 160 160 161 165 169 174 173 170 167 165 164 165 162 158 156 155 153 151 150 151 151 151 150 149 148 150 151 153 157 157 159 163 165 167 167 167 163 161 161 159 156 149 143 145 149 151 152 150 144 133 122 114 111 110 110 108 103 101 106 116 125
193 188 186 186 192 188 186 197 197 193 192 187 187 188 182 178 173 175 177 174 173 175 176 175 169 164 162 162 165 170 171 167 165 169 170 171 171 170 168 165 162 159 158 157 154 151 149 149 149 151 153 159 165 165 168 171 171 170 171 172 171 171 173 170 165 159 151 148 150 152 154 152 147 138 128 122 119 117 116 114 110 105 105 111 119
206 198 194 192 192 184 180 193 199 197 196 191 188 191 192 187 178 180 182 181 185 188 188 187 179 167 162 158 159 168 172 170 170 174 175 175 176 178 177 174 171 169 167 164 160 155 153 152 152 154 158 164 171 173 176 178 176 173 173 176 177 178 182 181 173 168 163 155 152 153 154 152 148 144 141 137 131 125 124 126 124 118 115 116 117
214 209 203 199 194 187 183 188 196 198 196 192 189 191 195 193 187 186 186 186 191 196 197 196 187 174 168 166 168 172 177 178 178 177 179 182 182 182 182 181 178 176 175 172 168 164 162 162 162 165 167 167 168 169 172 173 174 174 176 180 183 182 184 184 179 173 168 162 157 154 154 153 151 152 154 151 146 138 135 139 136 129 125 119 111
216 214 209 207 201 193 188 185 189 195 195 194 192 192 194 194 192 194 192 189 193 199 202 201 196 188 183 182 180 179 181 183 183 179 180 186 188 187 185 184 182 180 179 177 174 172 173 174 175 176 176 171 165 163 163 164 168 175 178 180 184 183 181 179 176 171 167 164 159 156 157 158 157 159 163 164 158 150 149 151 146 138 130 121 113
213 217 214 213 208 198 191 184 183 189 192 193 193 192 193 194 195 198 198 193 191 196 201 202 201 200 197 196 193 190 188 186 187 188 186 187 188 189 188 186 184 183 181 180 179 179 180 182 184 184 182 174 166 163 162 164 168 172 175 179 183 184 181 178 172 166 163 160 159 158 161 164 163 165 170 174 168 159 158 159 158 156 147 136 127
210 216 217 217 213 202 195 189 182 181 186 190 193 191 191 193 196 200 203 198 192 193 196 199 202 204 205 205 204 202 199 194 193 195 194 190 188 188 190 189 186 184 182 181 182 183 185 187 188 186 181 176 172 169 169 170 173 173 174 176 180 182 182 179 171 165 164 162 160 161 164 168 169 170 174 179 177 166 163 164 165 166 162 154 146
211 214 217 218 213 202 197 196 185 178 179 185 190 190 188 192 196 200 205 202 196 193 194 198 201 203 206 208 209 208 207 203 200 199 199 195 190 187 189 191 189 185 184 183 183 185 188 187 185 182 178 178 178 177 176 177 178 179 178 176 177 180 183 181 176 171 169 166 164 164 167 169 170 172 174 178 184 177 167 165 166 168 168 167 161
212 214 216 216 210 201 197 196 189 183 180 181 186 189 188 191 195 199 204 204 201 198 196 198 201 202 204 207 210 210 209 208 206 205 203 201 197 191 188 190 191 188 186 186 185 185 184 182 180 180 179 180 182 182 181 181 182 184 183 178 176 179 183 185 184 180 176 171 169 169 171 171 172 173 175 177 182 184 176 168 165 168 169 168 167
211 211 213 214 208 201 197 195 195 192 187 181 181 187 189 192 196 199 202 203 202 203 202 201 202 205 206 206 209 210 211 211 210 210 211 209 207 202 196 194 194 193 191 189 188 186 181 179 179 179 179 181 184 185 184 183 184 187 188 182 179 180 182 185 188 189 185 179 177 178 177 177 177 177 178 180 182 184 181 176 170 170 171 170 174
207 207 210 212 207 202 199 197 199 199 194 186 183 184 188 193 197 200 202 203 202 204 206 205 205 209 210 210 211 211 211 214 215 217 218 219 219 217 214 208 202 202 201 197 195 191 186 182 181 180 181 184 186 187 188 188 188 189 191 189 186 185 185 187 189 192 192 190 188 187 184 184 185 185 185 187 191 192 187 182 175 173 176 178 184
199 204 208 210 207 203 203 203 204 203 199 194 190 188 188 191 195 198 202 205 204 204 207 207 207 210 214 214 214 212 211 213 216 219 221 222 226 227 228 225 218 214 212 209 206 201 193 190 187 184 186 189 189 190 192 193 192 194 198 200 197 196 196 195 195 197 198 199 197 195 194 193 194 195 194 195 202 206 207 205 197 193 199 199 201
195 202 208 210 207 205 205 207 208 206 203 200 199 198 194 193 196 198 201 205 207 209 210 210 208 210 215 217 217 215 213 212 214 217 220 221 225 230 233 233 231 227 222 219 218 212 203 197 193 189 191 194 193 191 195 197 197 199 203 206 206 206 207 206 207 209 209 208 206 203 203 203 204 205 205 207 213 215 216 221 227 237 248 253 248
203 206 210 212 209 206 206 208 210 209 207 204 205 207 204 200 200 201 202 204 208 211 212 212 210 211 214 217 218 217 216 215 215 216 218 219 222 228 233 236 237 236 234 229 226 222 214 206 201 196 196 200 199 195 197 201 202 204 207 208 207 209 213 214 215 217 218 218 218 216 212 211 213 213 212 215 221 223 224 228 234 241 250 263 274
213 212 213 213 212 209 206 208 211 213 214 212 209 210 211 209 204 203 206 207 210 214 216 217 215 214 215 217 218 218 217 217 217 217 218 219 221 224 230 236 238 238 239 239 236 231 224 218 212 207 204 204 204 201 202 205 207 208 208 207 206 209 213 216 219 221 224 226 228 228 229 229 228 226 224 224 226 230 233 238 243 246 250 258 269
216 213 214 213 212 211 210 209 210 213 216 219 218 214 215 217 213 210 211 210 210 212 214 218 219 219 218 218 219 219 219 218 217 217 219 221 222 223 226 231 236 237 239 241 242 238 232 227 222 219 216 213 211 209 208 209 211 212 210 207 205 208 211 214 219 223 226 230 233 235 237 242 245 243 241 239 238 239 243 247 250 251 252 255 258
216 214 213 212 210 210 213 213 212 212 213 217 222 221 220 222 222 220 220 216 213 212 211 213 215 217 219 220 221 221 219 217 216 216 218 221 223 225 225 227 231 235 236 238 240 241 238 234 230 227 225 224 223 222 219 216 217 216 214 211 209 209 210 211 214 219 223 227 233 236 238 242 247 248 246 245 247 248 251 254 256 255 254 255 256
217 216 214 214 212 211 216 220 217 215 215 217 222 224 224 226 227 228 228 226 223 219 217 218 217 215 215 218 221 222 221 218 215 214 216 219 222 224 225 225 227 229 232 234 235 238 239 238 235 232 230 230 230 231 230 227 226 224 220 216 215 213 212 211 213 217 220 225 230 234 238 241 243 246 246 244 246 249 253 259 261 259 258 257 258
218 221 219 219 217 215 219 222 221 219 219 220 222 224 225 227 230 232 233 233 231 228 225 225 225 222 217 216 218 221 222 220 217 215 215 216 219 222 224 225 225 224 225 228 230 232 236 239 239 237 234 233 233 234 235 234 233 232 229 225 222 219 217 217 218 218 220 226 230 233 237 241 243 246 249 250 250 250 254 260 263 263 263 261 261
220 222 223 223 223 222 221 221 220 219 220 222 222 222 224 227 230 231 233 236 238 237 233 228 227 228 225 221 220 221 222 221 219 218 217 216 216 219 221 224 224 223 221 222 224 226 229 234 238 239 237 235 234 235 236 237 237 237 235 232 229 226 224 224 226 226 224 226 230 234 239 242 243 244 248 253 255 257 259 263 265 266 268 267 265
228 226 225 223 225 227 226 223 222 221 221 222 223 222 224 230 235 235 236 240 242 242 239 232 228 230 229 226 223 223 224 223 221 220 219 218 216 216 219 221 222 222 221 220 221 222 224 227 231 236 238 238 236 235 236 237 238 238 238 236 234 233 231 230 231 232 231 231 231 235 242 246 246 247 250 255 258 261 263 266 270 272 274 275 273
230 230 229 227 227 228 228 224 222 222 222 223 225 226 228 232 235 235 237 240 242 241 240 236 233 232 232 229 226 225 226 226 225 224 223 221 219 217 217 219 220 221 220 218 219 220 221 223 225 228 233 236 237 237 236 236 238 239 239 239 238 237 237 237 236 236 235 236 235 236 242 248 251 253 257 262 264 266 268 270 273 276 279 280 280
233 232 231 232 231 230 227 223 222 224 224 224 225 228 231 232 233 234 236 239 241 241 242 239 237 237 234 231 230 228 228 229 229 229 229 228 226 223 220 219 220 219 218 217 218 219 221 221 221 222 226 230 233 235 236 236 238 240 241 241 240 240 240 240 241 240 240 240 240 240 243 246 250 253 257 262 266 267 268 271 273 276 278 279 280
238 234 231 232 233 231 226 222 224 227 225 223 223 226 230 233 235 236 237 239 241 243 244 241 239 239 235 231 232 230 227 228 228 228 229 229 229 228 227 226 224 222 220 218 218 219 220 221 221 221 223 226 229 232 234 234 235 239 243 245 245 244 244 244 244 245 244 244 244 244 245 247 249 252 254 258 262 265 266 267 269 271 274 275 277
242 238 233 230 229 228 225 221 222 226 227 224 223 226 230 232 234 235 236 238 239 241 243 241 240 239 234 229 232 232 228 228 228 226 226 227 227 227 228 230 230 228 225 223 221 221 222 222 223 223 223 224 227 231 234 235 235 235 239 244 248 250 250 250 249 249 249 250 250 250 251 253 255 256 257 258 262 265 268 269 269 269 270 272 274
240 237 235 232 230 229 229 226 224 225 226 225 223 225 230 233 235 236 238 239 239 238 239 239 239 238 235 232 234 234 231 229 230 229 227 225 225 224 225 226 228 229 229 228 225 224 224 225 225 225 225 224 226 230 234 237 238 238 238 240 244 248 252 254 255 255 255 256 257 257 258 258 259 260 260 260 262 265 268 270 271 271 271 272 274
239 236 236 237 237 235 232 231 232 230 227 225 224 224 228 233 236 238 239 241 242 240 240 241 240 239 238 238 238 237 233 229 230 232 231 227 225 224 224 225 225 226 228 230 230 229 227 227 227 228 228 227 228 230 234 237 241 242 242 242 243 244 248 251 255 257 258 259 260 261 261 262 262 263 262 262 263 264 266 269 272 273 274 275 276
240 237 238 240 241 238 232 229 232 232 230 230 229 228 231 235 237 239 241 244 246 247 246 244 245 245 243 243 242 240 235 230 229 232 233 231 227 225 225 225 225 225 226 228 230 231 231 230 230 230 231 231 231 232 234 237 241 244 245 246 247 247 247 248 250 253 256 258 260 260 260 260 260 261 262 262 262 263 263 266 269 273 275 276 276
240 237 239 239 238 236 233 229 229 231 231 232 234 234 235 237 237 239 243 246 248 249 249 245 245 249 251 250 247 242 236 232 231 231 232 232 231 229 226 224 224 225 226 228 229 230 232 232 233 232 233 234 236 236 236 237 240 243 245 246 248 250 250 250 250 251 252 253 254 256 257 257 258 260 262 263 264 265 265 266 267 270 272 274 274
244 240 237 234 230 230 231 230 229 230 230 230 234 237 238 237 236 237 241 244 243 243 243 242 244 252 255 254 251 244 236 233 233 233 233 233 234 233 230 225 222 223 226 228 229 230 233 234 234 233 233 235 238 240 240 239 240 243 244 245 247 249 251 251 251 251 251 252 253 254 255 257 258 260 261 263 264 266 267 269 270 272 273 274 276
245 240 235 229 226 226 228 229 230 231 230 229 231 234 236 237 236 237 239 239 237 238 239 240 246 254 257 258 259 251 240 235 234 235 234 235 235 234 230 226 223 222 225 228 230 231 233 235 235 235 234 235 237 240 242 242 242 244 245 246 248 250 252 253 254 253 253 253 254 255 256 258 259 260 261 262 263 265 267 269 272 274 276 278 281
241 235 231 228 226 225 226 228 228 229 230 229 230 231 233 234 235 237 240 239 240 245 248 250 255 260 260 263 269 262 245 237 236 237 238 237 236 235 232 228 226 225 225 227 230 231 234 238 239 238 237 236 238 240 242 244 244 246 247 249 251 252 253 255 256 257 256 256 256 257 257 258 259 261 262 262 263 264 267 269 272 274 276 279 281
236 232 230 228 225 223 224 226 227 228 228 229 230 232 233 234 234 236 240 240 241 245 249 251 257 260 258 260 268 265 249 237 234 237 240 239 235 233 232 229 227 227 227 228 230 231 233 237 240 240 239 239 240 241 243 245 246 247 248 250 252 254 255 256 258 259 259 259 260 260 260 261 262 263 264 265 267 269 271 273 274 275 277 279 280
230 228 229 229 226 224 225 226 228 229 229 229 231 233 234 235 236 238 240 242 242 243 246 248 251 256 255 253 254 253 246 237 232 234 244 246 239 235 233 230 227 227 228 230 230 230 232 234 236 237 239 240 242 243 243 244 245 246 248 249 250 253 256 258 259 260 261 262 263 264 265 265 266 267 268 269 271 272 273 274 275 275 277 278 277
230 227 228 230 231 230 229 229 229 230 230 230 231 233 235 236 238 240 241 243 243 243 245 247 249 254 254 250 246 246 245 246 249 253 266 273 260 243 237 234 231 229 229 229 229 228 229 231 233 234 235 238 242 244 244 244 244 245 246 247 249 251 254 257 259 261 263 265 265 266 266 266 266 267 269 270 271 271 271 270 271 272 274 274 272
233 234 235 236 237 236 233 232 232 232 232 232 231 232 234 236 238 241 243 245 245 245 245 245 247 251 254 253 250 248 249 252 258 265 272 274 267 255 247 244 240 235 232 231 230 230 231 233 233 232 231 232 236 241 243 245 245 246 246 246 247 250 252 255 257 260 262 264 265 265 264 264 264 265 267 269 271 273 273 273 272 272 271 269 270
236 238 240 240 240 239 236 234 234 234 234 234 233 234 235 236 237 240 242 244 246 247 247 247 247 249 254 256 254 252 253 255 259 262 264 265 265 263 261 261 259 252 243 237 234 233 232 233 234 233 231 231 234 238 242 244 245 247 248 248 250 251 253 255 257 257 259 260 262 263 264 264 264 264 266 268 271 273 275 276 276 276 274 272 271
237 238 239 239 238 237 235 234 234 235 235 235 235 235 236 236 237 239 241 243 245 248 249 249 249 250 253 256 256 255 256 257 258 257 257 260 264 267 266 265 265 266 265 257 248 241 236 234 234 234 234 234 234 237 240 242 244 247 250 252 254 256 257 258 258 257 257 258 260 261 263 264 264 264 265 266 268 271 273 275 276 276 276 276 275
233 235 236 236 235 234 234 234 235 236 236 236 237 237 238 238 238 239 240 242 244 246 249 250 251 251 253 255 257 257 258 259 259 259 258 258 259 261 263 265 266 266 265 263 261 256 248 243 240 239 238 236 235 236 237 239 240 243 246 250 252 254 256 257 256 255 255 257 259 261 263 264 263 262 262 262 264 266 268 269 270 271 273 274 274
223 228 231 233 235 235 234 234 235 235 236 236 236 237 237 238 239 239 240 241 243 244 246 249 251 252 254 255 257 258 259 261 262 262 261 260 259 259 257 257 258 260 259 258 258 257 254 252 250 249 245 243 241 238 237 238 239 241 243 245 247 250 253 255 256 256 256 258 261 262 263 264 264 264 263 263 264 266 266 267 268 268 269 271 272
218 223 227 231 234 237 237 236 235 235 235 235 235 236 236 236 237 238 239 242 244 245 246 248 251 253 255 256 257 258 260 260 262 263 263 262 261 260 259 255 253 252 251 251 251 252 252 253 253 252 251 249 248 247 245 244 243 244 245 246 248 253 256 258 260 262 262 263 264 265 265 265 265 265 265 266 267 269 271 272 272 272 272 273 273
221 222 225 226 227 229 232 235 235 235 235 234 235 235 234 234 236 239 242 245 247 249 250 251 252 254 255 256 257 257 258 259 259 260 261 261 261 260 260 259 257 254 253 251 250 250 250 251 251 252 253 253 252 252 252 251 249 248 249 250 252 255 258 259 260 262 263 263 264 264 265 266 266 265 265 266 267 269 271 273 274 275 275 275 275
234 231 231 233 231 227 226 227 229 231 232 232 232 232 233 234 238 242 246 249 251 252 252 253 252 253 254 256 257 256 256 256 257 257 258 258 258 258 257 258 259 259 257 256 255 254 253 253 253 253 253 253 253 253 253 254 254 254 254 255 255 256 256 257 260 262 261 260 260 261 261 263 264 264 264 264 264 266 268 270 272 273 274 274 273
247 244 243 247 249 245 237 232 229 228 229 230 231 234 237 239 242 244 246 249 251 253 254 254 254 253 253 253 254 255 255 255 255 254 255 255 256 256 255 255 255 256 256 256 255 255 254 254 254 254 254 254 254 252 252 253 254 255 255 256 258 258 258 258 260 262 263 262 260 259 259 260 261 262 262 262 262 263 264 266 269 270 272 272 272
252 251 252 254 256 257 254 250 246 243 241 239 240 242 245 247 249 250 251 252 253 254 255 255 255 254 253 252 252 252 253 254 254 253 253 253 254 255 255 254 253 253 253 253 252 253 253 252 252 252 253 254 254 254 252 252 253 254 255 255 256 257 258 258 259 259 261 261 260 259 258 259 260 260 261 263 265 265 264 265 266 268 269 270 271
250 251 252 253 254 256 258 257 256 254 252 250 249 249 250 252 253 254 254 255 255 256 256 256 255 254 254 254 253 252 252 252 253 254 254 253 252 253 254 254 254 252 252 251 251 251 251 251 252 252 252 252 253 254 254 253 253 254 254 255 255 255 256 257 257 257 258 259 259 259 259 259 260 260 261 263 265 266 266 265 265 266 267 268 269
252 251 250 250 251 253 254 255 255 254 254 253 252 251 251 252 253 254 254 254 255 255 256 256 256 255 254 253 253 253 252 251 251 252 253 254 254 253 253 253 253 253 252 251 251 251 250 250 251 252 252 252 253 254 255 254 254 254 254 255 256 257 257 257 258 259 259 259 260 260 261 260 260 261 260 260 262 264 264 264 264 265 265 267 268
Height
5918 5919 5920 5922 5923 5924 5924 5925 5926 5927 5928 5929 5930 5932 5932 5933 5935 5935 5936 5937 5937 5938 5939 5941 5942 5942 5943 5943 5944 5945 5946 5946 5946 5946 5946 5947 5947 5947 5948 5948 5949 5949 5949 5950 5950 5950 5950 5951 5951 5952 5952 5952 5953 5953 5953 5953 5953 5954 5954 5955 5955 5956 5957 5958 5959 5960 5960 5961 5962 5962 5963 5963 5963 5963 5964 5964 5964 5964 5964 5964 5965 5965 5965 5965 5965
5918 5919 5920 5921 5922 5923 5924 5925 5926 5927 5928 5929 5930 5932 5933 5934 5935 5936 5937 5938 5938 5939 5940 5941 5942 5943 5943 5944 5945 5945 5946 5947 5947 5948 5948 5948 5948 5949 5949 5949 5950 5950 5951 5951 5951 5951 5952 5952 5952 5953 5953 5954 5954 5954 5954 5954 5955 5955 5956 5956 5956 5957 5958 5959 5960 5960 5961 5962 5962 5963 5964 5964 5964 5964 5964 5965 5965 5965 5965 5965 5965 5966 5966 5966 5966
5918 5918 5919 5920 5922 5923 5924 5925 5927 5928 5929 5930 5931 5932 5933 5934 5935 5936 5938 5939 5939 5940 5941 5942 5943 5943 5944 5944 5945 5946 5947 5947 5948 5948 5949 5949 5949 5950 5950 5950 5950 5951 5951 5952 5952 5953 5953 5953 5953 5954 5954 5954 5955 5955 5955 5956 5956 5957 5957 5957 5958 5958 5959 5960 5960 5961 5961 5962 5963 5964 5965 5965 5965 5965 5965 5965 5966 5966 5966 5966 5967 5967 5967 5967 5967
5917 5918 5919 5920 5921 5923 5924 5925 5927 5928 5930 5931 5931 5932 5933 5935 5935 5936 5938 5939 5940 5941 5942 5942 5943 5943 5944 5944 5945 5946 5947 5948 5949 5949 5950 5950 5950 5950 5951 5951 5951 5952 5952 5953 5953 5953 5954 5954 5954 5955 5955 5955 5956 5956 5957 5957 5957 5958 5958 5959 5959 5959 5960 5961 5961 5961 5961 5962 5963 5964 5965 5965 5966 5966 5966 5966 5966 5967 5967 5967 5968 5968 5968 5968 5969
5917 5918 5919 5920 5921 5922 5924 5925 5926 5928 5929 5931 5931 5932 5933 5935 5935 5936 5938 5940 5941 5942 5942 5942 5943 5944 5944 5945 5946 5947 5947 5948 5949 5950 5951 5951 5951 5951 5952 5952 5952 5953 5953 5953 5954 5954 5954 5955 5955 5955 5956 5956 5957 5957 5958 5958 5958 5959 5959 5960 5960 5960 5961 5961 5961 5962 5962 5962 5963 5964 5964 5965 5966 5966 5967 5967 5967 5967 5968 5968 5969 5969 5969 5969 5970
5916 5917 5918 5919 5920 5922 5923 5925 5926 5927 5929 5930 5932 5933 5934 5935 5935 5936 5938 5939 5941 5942 5942 5943 5943 5944 5945 5946 5946 5947 5948 5949 5949 5950 5951 5952 5952 5953 5953 5953 5953 5953 5954 5954 5955 5955 5955 5955 5956 5956 5956 5957 5958 5958 5958 5959 5959 5959 5960 5960 5960 5961 5961 5961 5962 5962 5962 5963 5963 5964 5965 5966 5966 5967 5967 5967 5968 5968 5969 5969 5969 5969 5969 5970 5970
5916 5917 5918 5919 5920 5921 5922 5924 5925 5927 5928 5930 5931 5932 5934 5935 5935 5937 5938 5939 5941 5942 5942 5943 5944 5945 5946 5947 5947 5948 5948 5949 5949 5950 5951 5952 5953 5953 5953 5954 5954 5954 5954 5955 5955 5955 5956 5956 5957 5957 5958 5958 5959 5959 5959 5959 5960 5960 5960 5960 5961 5961 5961 5962 5962 5962 5963 5963 5964 5964 5965 5966 5967 5967 5968 5968 5968 5969 5969 5969 5969 5969 5970 5970 5970
5915 5917 5918 5919 5920 5920 5921 5923 5924 5926 5928 5929 5930 5932 5933 5934 5935 5937 5938 5939 5940 5942 5943 5944 5944 5945 5946 5947 5948 5948 5949 5949 5950 5950 5951 5952 5952 5953 5954 5954 5954 5954 5955 5955 5955 5956 5956 5957 5958 5958 5959 5959 5959 5959 5959 5960 5960 5960 5960 5961 5961 5962 5962 5962 5963 5963 5963 5964 5964 5965 5965 5966 5967 5967 5968 5968 5969 5969 5969 5970 5970 5970 5970 5970 5971
5913 5915 5917 5918 5919 5919 5920 5922 5924 5926 5927 5928 5929 5931 5932 5933 5935 5936 5937 5938 5940 5942 5943 5944 5945 5946 5947 5947 5948 5948 5949 5949 5950 5950 5951 5952 5952 5953 5954 5954 5954 5955 5955 5955 5955 5956 5957 5957 5958 5959 5959 5959 5959 5959 5960 5960 5960 5961 5961 5962 5962 5962 5963 5963 5963 5964 5964 5964 5965 5965 5966 5967 5967 5968 5968 5968 5969 5969 5969 5970 5970 5970 5970 5971 5971
5912 5914 5915 5917 5918 5919 5920 5922 5923 5925 5926 5927 5929 5930 5931 5932 5934 5936 5937 5938 5939 5941 5943 5944 5946 5946 5947 5947 5948 5948 5948 5949 5950 5950 5951 5951 5952 5953 5953 5954 5954 5955 5955 5955 5956 5956 5957 5958 5958 5959 5959 5959 5959 5959 5960 5960 5961 5961 5962 5962 5963 5963 5963 5964 5964 5964 5964 5965 5965 5966 5967 5967 5967 5968 5968 5968 5969 5969 5969 5969 5970 5970 5971 5971 5971
5911 5912 5914 5915 5917 5918 5920 5922 5923 5924 5926 5927 5928 5929 5930 5931 5933 5935 5937 5938 5939 5940 5942 5944 5945 5946 5947 5947 5948 5948 5949 5949 5950 5951 5951 5952 5953 5953 5954 5954 5954 5954 5955 5955 5956 5957 5957 5958 5958 5958 5959 5959 5959 5960 5960 5961 5962 5962 5963 5963 5963 5964 5964 5964 5964 5964 5965 5965 5965 5966 5966 5967 5967 5968 5968 5969 5969 5969 5969 5969 5969 5970 5970 5971 5971
5910 5911 5912 5914 5916 5918 5920 5922 5923 5924 5925 5926 5927 5928 5930 5931 5932 5934 5936 5938 5939 5940 5941 5943 5944 5945 5946 5947 5948 5949 5949 5950 5950 5951 5952 5952 5953 5953 5954 5954 5954 5954 5955 5955 5956 5957 5957 5958 5958 5958 5958 5959 5959 5960 5960 5961 5962 5962 5963 5963 5964 5964 5964 5964 5964 5964 5965 5965 5965 5966 5966 5967 5967 5968 5968 5968 5969 5969 5969 5968 5969 5969 5970 5970 5971
5908 5910 5911 5913 5916 5918 5919 5921 5922 5923 5923 5924 5926 5927 5928 5930 5932 5933 5935 5937 5938 5939 5940 5942 5943 5944 5946 5947 5948 5948 5949 5950 5950 5951 5951 5952 5952 5953 5953 5954 5955 5955 5955 5956 5956 5957 5957 5957 5958 5958 5958 5958 5959 5960 5960 5961 5962 5962 5963 5963 5963 5964 5964 5964 5964 5965 5965 5965 5965 5966 5966 5966 5967 5967 5968 5968 5969 5969 5969 5968 5968 5969 5969 5970 5970
5907 5908 5910 5912 5915 5916 5918 5919 5920 5921 5922 5923 5924 5926 5927 5929 5930 5932 5933 5935 5937 5938 5939 5941 5942 5943 5945 5946 5947 5948 5948 5949 5950 5950 5951 5951 5952 5952 5953 5953 5954 5955 5955 5955 5956 5956 5957 5957 5957 5958 5958 5959 5959 5960 5960 5961 5961 5962 5963 5963 5963 5963 5964 5964 5964 5965 5965 5965 5965 5965 5966 5966 5966 5967 5967 5968 5968 5968 5968 5968 5968 5968 5968 5969 5969
5905 5906 5909 5911 5913 5915 5916 5918 5919 5920 5921 5922 5923 5924 5926 5928 5929 5931 5932 5933 5935 5937 5938 5940 5941 5942 5943 5945 5945 5946 5947 5948 5949 5950 5950 5951 5951 5952 5952 5953 5953 5954 5954 5955 5955 5956 5956 5957 5957 5957 5958 5958 5959 5960 5960 5960 5961 5961 5962 5963 5963 5963 5964 5964 5964 5965 5965 5965 5965 5965 5966 5966 5966 5966 5967 5967 5968 5968 5968 5968 5968 5968 5968 5968 5969
5902 5905 5907 5909 5912 5913 5915 5917 5917 5919 5920 5922 5923 5924 5925 5927 5929 5930 5931 5933 5934 5935 5936 5938 5939 5941 5942 5943 5944 5945 5946 5947 5948 5949 5950 5951 5951 5952 5952 5953 5953 5954 5954 5955 5956 5956 5956 5957 5957 5957 5958 5958 5959 5959 5960 5960 5960 5961 5962 5962 5963 5963 5963 5964 5964 5965 5965 5965 5965 5965 5966 5966 5966 5966 5967 5967 5968 5968 5968 5968 5968 5968 5968 5968 5968
5901 5903 5905 5907 5910 5912 5914 5915 5916 5918 5920 5921 5922 5923 5925 5926 5928 5929 5931 5932 5934 5935 5936 5937 5938 5939 5940 5942 5943 5944 5945 5946 5947 5948 5949 5950 5951 5952 5952 5953 5953 5954 5955 5956 5956 5957 5957 5957 5957 5958 5958 5958 5959 5959 5959 5960 5960 5961 5961 5962 5962 5963 5963 5964 5964 5965 5965 5965 5965 5965 5966 5966 5966 5966 5966 5967 5967 5968 5968 5968 5968 5969 5969 5969 5969
5900 5902 5904 5906 5909 5910 5912 5913 5915 5917 5919 5920 5922 5923 5924 5926 5927 5929 5930 5931 5932 5934 5935 5936 5937 5938 5939 5940 5942 5943 5944 5945 5946 5947 5948 5949 5950 5951 5952 5952 5953 5954 5955 5956 5956 5957 5957 5957 5957 5958 5958 5958 5959 5959 5959 5959 5960 5960 5961 5961 5962 5962 5963 5964 5964 5965 5965 5965 5965 5966 5966 5966 5966 5966 5966 5966 5967 5967 5967 5968 5968 5968 5969 5969 5969
5900 5902 5903 5904 5906 5907 5910 5912 5914 5916 5918 5919 5920 5922 5923 5925 5926 5927 5928 5930 5931 5932 5934 5935 5936 5937 5938 5939 5940 5942 5943 5944 5945 5946 5947 5948 5949 5950 5951 5952 5953 5954 5955 5956 5956 5957 5957 5957 5957 5958 5958 5958 5959 5959 5959 5959 5960 5960 5960 5961 5961 5962 5963 5963 5964 5965 5965 5965 5966 5966 5966 5966 5966 5966 5966 5966 5966 5967 5967 5967 5967 5968 5968 5969 5969
5899 5899 5899 5900 5902 5905 5908 5911 5913 5915 5916 5917 5919 5920 5921 5923 5924 5926 5927 5928 5929 5931 5933 5934 5935 5936 5937 5938 5939 5940 5941 5943 5944 5946 5946 5947 5948 5949 5950 5951 5952 5953 5954 5955 5956 5956 5957 5957 5957 5958 5958 5958 5958 5959 5959 5959 5959 5959 5959 5960 5960 5961 5961 5962 5963 5964 5964 5965 5965 5966 5966 5966 5966 5967 5966 5966 5966 5966 5966 5967 5967 5967 5968 5968 5968
5896 5896 5896 5899 5902 5903 5905 5907 5909 5912 5915 5916 5917 5918 5919 5920 5922 5924 5926 5927 5928 5929 5930 5932 5933 5934 5935 5936 5937 5938 5940 5941 5943 5944 5945 5946 5947 5948 5949 5950 5951 5952 5953 5954 5955 5956 5956 5957 5957 5958 5958 5958 5958 5959 5959 5959 5959 5959 5959 5959 5959 5960 5960 5961 5961 5962 5963 5963 5964 5965 5965 5966 5966 5966 5966 5966 5966 5966 5966 5967 5967 5967 5967 5967 5968
5894 5895 5896 5898 5901 5902 5903 5904 5907 5911 5913 5914 5915 5916 5917 5919 5921 5922 5924 5925 5927 5928 5929 5929 5930 5931 5932 5934 5935 5936 5937 5939 5941 5942 5943 5945 5946 5947 5948 5949 5950 5951 5952 5953 5954 5955 5956 5956 5957 5957 5958 5958 5958 5959 5959 5959 5959 5960 5959 5959 5959 5959 5959 5959 5960 5961 5961 5962 5963 5964 5964 5965 5965 5965 5965 5965 5966 5966 5966 5966 5967 5967 5967 5967 5967
5892 5894 5896 5897 5898 5899 5901 5903 5906 5908 5910 5910 5912 5914 5915 5917 5919 5920 5921 5923 5924 5925 5926 5928 5929 5929 5930 5931 5932 5933 5935 5937 5939 5940 5941 5942 5944 5945 5946 5947 5948 5949 5950 5951 5952 5953 5954 5955 5956 5956 5957 5957 5958 5958 5959 5959 5959 5960 5960 5959 5959 5959 5959 5959 5959 5959 5960 5961 5962 5962 5963 5963 5964 5964 5965 5965 5965 5965 5965 5966 5966 5966 5966 5967 5967
5891 5893 5895 5896 5897 5897 5899 5901 5903 5905 5905 5906 5908 5910 5913 5915 5917 5918 5919 5919 5920 5922 5923 5925 5926 5927 5927 5928 5929 5931 5933 5934 5936 5938 5939 5940 5941 5943 5944 5945 5946 5947 5948 5949 5950 5951 5952 5953 5954 5955 5956 5956 5957 5957 5958 5958 5959 5959 5959 5959 5959 5959 5959 5959 5959 5959 5959 5960 5960 5961 5962 5962 5963 5963 5963 5964 5964 5965 5965 5965 5965 5966 5966 5966 5967
5890 5891 5892 5893 5895 5896 5898 5899 5900 5901 5902 5903 5905 5908 5911 5914 5916 5917 5917 5917 5918 5918 5919 5921 5922 5924 5925 5926 5927 5928 5930 5932 5933 5934 5936 5937 5938 5940 5941 5942 5944 5945 5946 5946 5947 5948 5949 5950 5951 5953 5954 5954 5955 5956 5956 5957 5958 5958 5958 5959 5959 5959 5959 5959 5959 5959 5959 5959 5959 5960 5961 5961 5962 5962 5963 5963 5963 5964 5964 5964 5965 5965 5965 5966 5966
5887 5888 5889 5891 5893 5895 5896 5897 5897 5897 5899 5901 5904 5907 5910 5911 5912 5912 5913 5914 5915 5915 5916 5918 5919 5920 5922 5923 5924 5926 5928 5930 5931 5932 5933 5934 5935 5937 5938 5939 5941 5942 5942 5944 5944 5945 5946 5947 5948 5950 5951 5952 5953 5954 5955 5955 5956 5957 5957 5957 5958 5958 5958 5959 5959 5958 5958 5958 5959 5959 5960 5961 5961 5962 5963 5963 5963 5963 5964 5964 5964 5965 5965 5965 5966
5885 5886 5888 5889 5891 5892 5894 5895 5895 5895 5896 5899 5902 5904 5906 5907 5907 5908 5909 5910 5912 5913 5914 5915 5916 5917 5919 5921 5923 5925 5927 5928 5929 5930 5931 5932 5933 5934 5936 5937 5937 5938 5939 5940 5941 5942 5942 5943 5945 5946 5948 5949 5951 5951 5952 5953 5954 5955 5955 5956 5956 5957 5957 5958 5958 5958 5958 5958 5958 5958 5959 5960 5961 5962 5962 5963 5963 5963 5963 5963 5964 5964 5964 5965 5965
5883 5884 5886 5888 5889 5889 5891 5893 5893 5893 5895 5897 5898 5899 5902 5903 5905 5906 5907 5908 5910 5912 5912 5913 5913 5914 5916 5919 5921 5921 5922 5924 5925 5926 5927 5929 5931 5932 5934 5934 5935 5936 5937 5937 5938 5938 5939 5941 5942 5943 5945 5946 5948 5949 5950 5950 5951 5952 5953 5954 5955 5955 5956 5956 5957 5957 5957 5957 5957 5958 5958 5959 5960 5961 5962 5962 5962 5963 5963 5963 5963 5963 5963 5963 5964
5880 5881 5883 5885 5886 5886 5888 5890 5891 5892 5893 5895 5896 5898 5899 5901 5902 5903 5904 5905 5907 5909 5908 5908 5909 5910 5912 5916 5917 5916 5918 5920 5921 5922 5923 5924 5926 5928 5930 5931 5933 5934 5934 5935 5935 5936 5937 5938 5940 5941 5942 5943 5945 5946 5947 5948 5948 5949 5951 5952 5953 5954 5954 5955 5955 5956 5956 5956 5957 5957 5958 5958 5959 5960 5961 5962 5962 5962 5962 5962 5962 5962 5962 5962 5962
5878 5879 5880 5882 5883 5884 5885 5887 5888 5890 5891 5893 5895 5896 5897 5898 5899 5900 5901 5902 5904 5905 5905 5904 5905 5906 5908 5911 5912 5912 5914 5917 5918 5919 5920 5920 5921 5922 5924 5926 5928 5930 5932 5932 5933 5933 5934 5936 5937 5938 5940 5941 5942 5943 5944 5945 5946 5947 5948 5949 5950 5951 5952 5953 5954 5954 5955 5955 5956 5956 5956 5957 5957 5958 5959 5960 5960 5961 5961 5961 5961 5961 5961 5961 5960
5875 5876 5877 5879 5881 5882 5883 5885 5886 5888 5889 5891 5892 5893 5894 5895 5897 5897 5898 5899 5901 5902 5902 5901 5902 5903 5904 5906 5907 5909 5910 5912 5914 5916 5917 5917 5918 5919 5920 5920 5922 5925 5927 5930 5932 5933 5933 5934 5935 5936 5937 5939 5940 5940 5941 5943 5944 5945 5946 5947 5948 5948 5949 5950 5951 5952 5953 5953 5954 5955 5955 5955 5955 5955 5956 5957 5958 5958 5959 5958 5958 5959 5959 5959 5959
5871 5873 5875 5876 5878 5879 5881 5883 5885 5886 5888 5889 5890 5891 5892 5893 5894 5895 5895 5896 5898 5899 5899 5899 5899 5900 5901 5902 5903 5904 5905 5907 5909 5911 5912 5913 5915 5916 5916 5917 5919 5922 5924 5926 5929 5931 5932 5933 5934 5935 5936 5937 5937 5937 5938 5940 5941 5943 5944 5945 5946 5946 5947 5948 5948 5949 5950 5951 5952 5952 5952 5953 5953 5953 5953 5954 5954 5955 5955 5956 5956 5956 5956 5957 5957
5868 5870 5872 5873 5875 5876 5878 5880 5883 5884 5885 5886 5887 5888 5889 5890 5892 5892 5892 5893 5894 5895 5895 5896 5897 5897 5897 5898 5899 5899 5900 5902 5904 5906 5907 5909 5911 5913 5914 5915 5917 5920 5922 5923 5925 5927 5929 5931 5932 5933 5934 5935 5935 5935 5936 5936 5938 5939 5941 5942 5943 5944 5945 5946 5946 5947 5947 5948 5948 5949 5949 5950 5950 5950 5950 5951 5951 5952 5952 5953 5953 5953 5953 5953 5954
5866 5867 5869 5870 5872 5873 5875 5877 5879 5881 5882 5883 5884 5884 5886 5887 5889 5889 5889 5890 5891 5892 5893 5894 5894 5894 5894 5894 5894 5894 5895 5897 5900 5902 5903 5905 5907 5909 5911 5912 5914 5917 5919 5920 5921 5924 5926 5927 5929 5930 5931 5932 5933 5933 5934 5934 5935 5936 5937 5938 5940 5941 5942 5943 5944 5944 5944 5945 5945 5946 5946 5946 5947 5947 5948 5948 5948 5948 5949 5950 5950 5951 5951 5951 5951
5863 5864 5865 5866 5868 5870 5871 5873 5876 5877 5879 5880 5881 5881 5883 5884 5885 5885 5886 5887 5889 5890 5890 5891 5891 5891 5891 5891 5891 5891 5892 5894 5897 5899 5900 5901 5903 5905 5908 5910 5912 5913 5915 5916 5918 5920 5922 5924 5926 5927 5928 5928 5929 5930 5931 5932 5932 5933 5934 5936 5937 5938 5938 5940 5941 5941 5942 5942 5943 5943 5944 5944 5944 5944 5944 5945 5945 5945 5946 5947 5948 5948 5948 5949 5949
5859 5859 5860 5862 5864 5866 5868 5870 5872 5874 5875 5876 5877 5878 5879 5880 5881 5882 5883 5884 5886 5887 5887 5888 5888 5889 5889 5889 5889 5889 5890 5891 5894 5896 5897 5898 5900 5903 5906 5908 5910 5911 5912 5914 5916 5917 5918 5921 5923 5924 5925 5926 5926 5927 5928 5929 5930 5930 5932 5933 5934 5935 5936 5936 5937 5938 5939 5939 5940 5940 5941 5941 5941 5941 5941 5941 5942 5942 5944 5945 5945 5946 5946 5947 5947
5854 5854 5856 5858 5860 5862 5864 5866 5868 5870 5871 5873 5874 5875 5876 5877 5878 5879 5879 5881 5883 5884 5885 5886 5886 5886 5887 5888 5888 5889 5890 5890 5891 5893 5894 5895 5898 5901 5902 5903 5906 5908 5909 5910 5911 5912 5913 5915 5918 5920 5922 5923 5923 5925 5926 5927 5928 5928 5929 5931 5932 5933 5933 5934 5934 5935 5935 5936 5937 5937 5938 5938 5939 5939 5938 5939 5939 5940 5942 5943 5943 5943 5944 5945 5945
5850 5851 5853 5855 5857 5859 5861 5862 5864 5866 5868 5869 5871 5872 5873 5874 5875 5876 5876 5878 5879 5881 5882 5883 5884 5884 5886 5887 5888 5889 5890 5890 5890 5890 5891 5893 5895 5896 5897 5899 5901 5903 5904 5906 5907 5908 5909 5911 5914 5916 5918 5919 5920 5921 5923 5924 5924 5925 5926 5927 5929 5930 5931 5932 5932 5932 5933 5933 5934 5934 5935 5936 5936 5936 5936 5936 5937 5938 5940 5940 5940 5941 5941 5942 5941
5846 5848 5849 5851 5853 5855 5857 5858 5860 5862 5863 5865 5867 5868 5869 5871 5871 5872 5873 5874 5876 5877 5879 5880 5881 5882 5883 5885 5885 5886 5887 5888 5888 5888 5889 5890 5892 5893 5894 5895 5897 5898 5900 5901 5903 5904 5906 5908 5910 5912 5913 5915 5916 5917 5918 5919 5920 5921 5922 5923 5925 5926 5928 5928 5929 5929 5930 5931 5931 5931 5931 5932 5933 5933 5933 5933 5933 5934 5936 5937 5937 5937 5938 5938 5936
5841 5843 5844 5846 5848 5850 5852 5854 5855 5857 5858 5860 5861 5863 5864 5866 5867 5868 5869 5870 5872 5873 5875 5877 5878 5879 5880 5881 5883 5884 5885 5885 5886 5886 5888 5889 5890 5891 5891 5892 5893 5895 5896 5898 5899 5901 5902 5904 5906 5908 5909 5910 5911 5911 5913 5915 5916 5917 5918 5919 5921 5922 5924 5924 5925 5926 5927 5927 5927 5927 5928 5928 5929 5930 5930 5929 5929 5929 5931 5933 5933 5934 5935 5934 5933
5835 5837 5839 5841 5843 5845 5848 5849 5851 5852 5853 5855 5856 5857 5859 5861 5862 5864 5865 5866 5867 5869 5871 5873 5875 5876 5877 5878 5879 5881 5882 5882 5883 5885 5887 5887 5888 5889 5890 5890 5891 5892 5893 5895 5896 5897 5899 5900 5902 5903 5904 5905 5906 5908 5909 5911 5912 5913 5914 5915 5916 5918 5920 5921 5922 5923 5923 5923 5923 5923 5924 5924 5926 5926 5926 5926 5926 5925 5926 5928 5928 5929 5929 5930 5930
5828 5831 5834 5836 5838 5840 5843 5844 5846 5847 5849 5850 5852 5853 5855 5856 5858 5860 5861 5863 5864 5866 5867 5869 5871 5872 5873 5874 5876 5877 5878 5879 5881 5882 5884 5885 5885 5886 5887 5888 5889 5890 5891 5892 5893 5895 5896 5897 5898 5899 5901 5902 5903 5904 5906 5907 5908 5909 5910 5911 5912 5914 5915 5917 5918 5918 5918 5919 5919 5919 5920 5920 5921 5922 5922 5922 5922 5922 5922 5923 5923 5923 5923 5924 5925
5822 5825 5828 5831 5833 5835 5837 5839 5841 5843 5845 5847 5849 5850 5852 5853 5855 5857 5858 5860 5861 5863 5864 5866 5868 5869 5870 5871 5872 5873 5874 5876 5877 5879 5880 5882 5883 5884 5885 5886 5886 5888 5889 5890 5891 5893 5894 5895 5895 5896 5898 5899 5899 5901 5902 5903 5904 5905 5906 5907 5908 5909 5910 5911 5912 5912 5913 5913 5914 5914 5915 5916 5916 5917 5917 5917 5918 5918 5917 5918 5918 5917 5917 5918 5919
5816 5819 5822 5825 5827 5829 5831 5833 5835 5838 5840 5843 5845 5847 5849 5850 5852 5853 5855 5856 5858 5860 5861 5863 5864 5865 5866 5867 5868 5870 5871 5872 5873 5875 5876 5878 5880 5881 5882 5884 5884 5885 5886 5887 5889 5890 5891 5892 5893 5894 5894 5895 5896 5897 5899 5899 5901 5902 5902 5902 5903 5904 5904 5906 5907 5907 5907 5908 5908 5909 5910 5911 5911 5912 5912 5912 5912 5912 5912 5913 5913 5912 5912 5912 5912
5811 5813 5816 5818 5821 5823 5826 5828 5830 5833 5835 5838 5840 5843 5844 5846 5847 5849 5851 5852 5854 5855 5857 5859 5860 5861 5863 5864 5865 5866 5868 5869 5870 5871 5872 5874 5876 5877 5878 5880 5881 5882 5883 5884 5886 5887 5888 5889 5890 5891 5891 5891 5892 5894 5895 5896 5897 5898 5898 5898 5899 5899 5900 5902 5903 5903 5903 5903 5903 5904 5905 5905 5906 5906 5907 5907 5907 5907 5907 5907 5907 5907 5907 5907 5907
5806 5809 5811 5812 5814 5816 5819 5821 5824 5827 5830 5833 5835 5837 5840 5841 5843 5844 5845 5847 5849 5850 5852 5854 5855 5856 5858 5860 5861 5863 5864 5865 5866 5867 5868 5869 5871 5872 5874 5875 5876 5878 5879 5880 5881 5882 5883 5885 5886 5887 5887 5888 5889 5890 5891 5892 5893 5894 5894 5894 5895 5896 5897 5898 5898 5898 5898 5898 5899 5899 5900 5901 5901 5901 5902 5902 5902 5901 5901 5901 5901 5901 5901 5902 5902
5802 5804 5805 5807 5809 5811 5813 5815 5818 5822 5825 5827 5829 5832 5834 5836 5838 5839 5840 5842 5843 5845 5846 5848 5850 5852 5853 5855 5856 5858 5860 5861 5863 5863 5864 5865 5866 5867 5869 5870 5871 5872 5873 5874 5875 5877 5878 5879 5880 5881 5882 5883 5885 5886 5887 5888 5888 5889 5890 5890 5890 5891 5892 5893 5892 5892 5893 5893 5894 5894 5895 5896 5896 5897 5897 5897 5897 5896 5896 5895 5895 5895 5896 5896 5896
5796 5798 5799 5801 5803 5806 5808 5811 5813 5816 5819 5821 5823 5825 5827 5829 5831 5833 5835 5836 5838 5839 5841 5842 5844 5846 5848 5849 5851 5852 5854 5856 5858 5859 5860 5861 5861 5862 5864 5865 5866 5867 5868 5869 5870 5871 5872 5873 5874 5875 5876 5877 5879 5881 5882 5883 5883 5884 5884 5884 5885 5885 5886 5886 5886 5886 5887 5888 5889 5889 5890 5891 5891 5891 5891 5891 5891 5892 5891 5891 5890 5890 5890 5890 5890
5790 5792 5794 5795 5797 5799 5803 5805 5808 5810 5812 5815 5817 5819 5821 5822 5825 5827 5829 5830 5832 5834 5835 5837 5838 5840 5841 5843 5845 5847 5848 5850 5851 5853 5855 5856 5857 5858 5859 5860 5861 5862 5863 5864 5865 5866 5867 5868 5869 5870 5871 5871 5873 5874 5876 5877 5877 5878 5878 5879 5880 5880 5881 5881 5881 5882 5882 5883 5883 5884 5884 5885 5885 5886 5886 5886 5886 5886 5886 5886 5886 5885 5885 5885 5885
5783 5785 5787 5789 5791 5794 5797 5799 5801 5803 5805 5808 5810 5812 5814 5816 5817 5819 5821 5823 5825 5827 5829 5831 5832 5834 5835 5837 5838 5840 5842 5843 5845 5846 5848 5850 5852 5853 5854 5854 5855 5856 5857 5858 5859 5860 5861 5862 5863 5864 5865 5866 5866 5867 5868 5870 5871 5871 5872 5873 5874 5874 5875 5875 5875 5876 5877 5877 5877 5878 5878 5879 5880 5880 5881 5881 5881 5881 5881 5880 5880 5880 5880 5880 5880
5776 5778 5781 5784 5786 5789 5791 5793 5794 5796 5798 5800 5802 5804 5806 5808 5810 5812 5814 5816 5818 5820 5822 5824 5826 5827 5829 5830 5832 5833 5835 5837 5838 5840 5841 5843 5845 5847 5848 5849 5850 5851 5851 5852 5853 5854 5855 5857 5858 5858 5859 5860 5860 5861 5862 5863 5864 5865 5866 5866 5867 5867 5868 5868 5869 5869 5870 5871 5871 5871 5872 5873 5873 5874 5874 5875 5875 5875 5875 5875 5875 5875 5875 5875 5875